Regional Weather Roundup
Issued by NWS Goodland, KS

Home | Current Version | Previous Version | Text Only | Print | Product List | Glossary On
Versions: 1 2 3 4 5 6 7 8 9 10 11 12 13 14 15 16 17 18 19 20 21 22 23 24 25 26 27 28 29 30 31 32 33 34 35 36 37 38 39 40 41 42 43 44 45 46 47 48 49 50
000
ASUS43 KGLD 200308
RWRGLD

GOODLAND FORECAST AREA HOURLY WEATHER ROUNDUP
NATIONAL WEATHER SERVICE GOODLAND KS
900 PM MDT SAT AUG 19 2017

...OFFICIAL OBSERVATIONS...

CITY           SKY/WX    TMP DP  RH WIND       PRES   REMARKS
GOODLAND KS    CLEAR     74  58  57 S12       29.94R
HILL CITY KS   CLOUDY    82  58  43 SW8       29.87R
IMPERIAL NEB   CLEAR     74  62  66 CALM      29.87R
MCCOOK NEB     CLEAR     81  58  45 SW13      29.84R
AKRON CO       CLEAR     82  45  27 S13       29.98R
BURLINGTON CO  CLEAR     73  54  51 S12       29.98R
LIMON CO       PTCLDY    73  48  41 E5        30.08R
$$

...UNOFFICIAL OBSERVATIONS...

CITY           SKY/WX    TMP DP  RH WIND       PRES   REMARKS
LENORA KS        N/A     81  32  17 CALM        N/A
NORTON KS      CLEAR     79  52  38 S7        29.85R
TRENTON NEB      N/A     75  32  20 SW5         N/A
KIT CARSON CO    N/A     70  52  52 CALM        N/A
YUMA CO        FAIR      68  50  52 SW7       29.94R
$$




USA.gov is the U.S. government's official web portal to all federal, state and local government web resources and services.